sat.trackr.live / text

‹ back to catalog

STARLINK-11524 [DTC]

NORAD 62839 · 2025-019L

PAYLOAD ACTIVE UNKNOWN

§ Identity

Operator
Country
US
Launch date
2025-01-27
Launch site
AFETR
Launch vehicle
Mass (kg)
RCS (m²)

Purposes: comms

External: N2YO · Heavens-Above · Gunter

§ Orbital elements

Epoch: 2026-05-25T03:53:31.818048Z

Period
91.66 min
Inclination
43.0031°
Eccentricity
0.0008006
Mean motion
15.70947528 rev/d
Perigee alt
350.8 km
Apogee alt
361.6 km
Semi-major
6,734.3 km
B*
1.2007e-3
RAAN
205.4068°
Arg perigee
283.7477°
Mean anomaly
76.2499°
Rev number
7,590

§ Raw data

STARLINK-11524 [DTC]1 62839U 25019L   26145.16217382  .00157512  00000+0  12007-2 0  99952 62839  43.0031 205.4068 0008006 283.7477  76.2499 15.70947528 75904

JSON: /api/v1/satellites/62839 · /tle

For live sub-satellite position, see the globe view (requires WebGL).

§ Visibility from observer

Set your observer location to see the next 7 days of passes ≥ 10°. The values pass through the URL so the page stays shareable.

No JS? Fill the form by hand. The geolocation button needs JavaScript.